Printer-friendly version

IAU Minor Planet Center

Minor Planet Center

MPEC 1999-P35: 1999 PS3

The following Minor Planet Electronic Circular may be linked-to from your own Web pages, but must not otherwise be redistributed electronically.


Read MPEC 1999-P34 Read MPEC 1999-P36


M.P.E.C. 1999-P35                                Issued 1999 Aug. 14, 15:58 UT

     The Minor Planet Electronic Circulars contain information on unusual
         minor planets and routine data on comets.  They are published
   on behalf of Commission 20 of the International Astronomical Union by the
          Minor Planet Center, Smithsonian Astrophysical Observatory,
                          Cambridge, MA 02138, U.S.A.

             BMARSDEN@CFA.HARVARD.EDU or GWILLIAMS@CFA.HARVARD.EDU
          URL http://cfa-www.harvard.edu/iau/mpc.html  ISSN 1523-6714

                                   1999 PS3

Observations:
     J99P03S* C1999 08 11.20946 18 44 05.22 +21 18 05.5          18.3        704
     J99P03S  C1999 08 11.22103 18 44 08.06 +21 19 24.3          19.2        704
     J99P03S  C1999 08 11.23260 18 44 10.91 +21 20 42.7          19.0        704
     J99P03S  C1999 08 11.25588 18 44 16.63 +21 23 19.3          18.9        704
     J99P03S  C1999 08 12.14123 18 48 43.39 +23 05 11.2          18.4        704
     J99P03S  C1999 08 12.15331 18 48 46.61 +23 06 36.3          18.4        704
     J99P03S  C1999 08 12.17757 18 48 53.15 +23 09 26.8          18.7        704
     J99P03S  C1999 08 12.18954 18 48 56.43 +23 10 51.2          19.3        704
     J99P03S  C1999 08 12.83551 18 52 22.09 +24 26 27.1                      557
     J99P03S  C1999 08 12.83645 18 52 22.34 +24 26 33.7                      557
     J99P03S  C1999 08 12.83738 18 52 22.63 +24 26 40.8                      557
     J99P03S  C1999 08 13.84163 18 58 05.02 +26 27 36.2          17.7 R      046
     J99P03S  C1999 08 13.84238 18 58 05.22 +26 27 42.0                      046
     J99P03S  C1999 08 13.84311 18 58 05.46 +26 27 46.6                      046
     J99P03S  C1999 08 13.84865 18 58 07.26 +26 28 28.3                      046
     J99P03S  C1999 08 13.85088 18 58 08.02 +26 28 44.5                      046
     J99P03S  C1999 08 13.85183 18 58 08.29 +26 28 51.0                      046
     J99P03S  C1999 08 13.86962 18 58 14.58 +26 30 59.6                      611

Observer details:
046 Klet.  Observers J. Ticha, M. Tichy.  Measurer M. Tichy.  0.57-m f/5.2
    reflector + CCD.
557 Ondrejov.  Observers P. Pravec, P. Kusnirak.  0.65-m f/3.6 reflector + CCD.
611 Starkenburg.  Observer M. Busch.  0.45-m f/4.4 reflector + CCD.
704 Lincoln Laboratory ETS, New Mexico.  Observers M. Blythe, F. Shelly,
    M. Bezpalko, M. Elowitz.  Measurers J. Stuart, H. Viggh, R. Sayer.  1.0-m
    f/2.15 reflector + CCD.

Orbital elements:
1999 PS3
Epoch 1999 Aug. 10.0 TT = JDT 2451400.5                 Williams
M 353.80757              (2000.0)            P               Q
n   0.33054833     Peri.   78.03658     +0.91112562     +0.40743155
a   2.0716326      Node   257.89420     -0.39849989     +0.83255824
e   0.4957267      Incl.    3.63824     -0.10510921     +0.37529496
P   2.98           H   21.7           G   0.15
From 18 observations 1999 Aug. 11-13.

Ephemeris:
1999 PS3                 a,e,i = 2.07, 0.50, 4                   q = 1.0447
Date    TT    R. A. (2000) Decl.     Delta      r     Elong.  Phase     V
1999 08 10    18 38.66   +19 04.1    0.085    1.068   127.6    48.7    18.3
1999 08 15    19 05.29   +28 51.0    0.077    1.057   123.5    53.0    18.2
1999 08 20    19 46.07   +39 25.3    0.072    1.050   119.9    56.7    18.1
1999 08 25    20 46.51   +48 55.1    0.072    1.046   117.1    59.4    18.2
1999 08 30    22 05.93   +54 57.0    0.076    1.045   115.6    60.7    18.4
1999 09 04    23 27.95   +56 30.2    0.083    1.047   115.6    60.3    18.6
1999 09 09    00 33.17   +54 48.9    0.093    1.053   117.1    58.4    18.8
1999 09 14    01 17.60   +51 41.3    0.105    1.062   119.8    55.3    18.9
1999 09 19    01 46.34   +48 12.0    0.118    1.074   123.4    51.3    19.1
1999 09 24    02 04.66   +44 47.0    0.132    1.089   127.8    46.7    19.3
1999 09 29    02 16.10   +41 34.2    0.147    1.107   132.7    41.7    19.4
1999 10 04    02 22.83   +38 33.9    0.163    1.127   138.1    36.4    19.5
1999 10 09    02 26.30   +35 44.7    0.181    1.150   143.8    30.9    19.6
1999 10 14    02 27.60   +33 06.1    0.200    1.174   149.7    25.4    19.7
1999 10 19    02 27.56   +30 38.2    0.221    1.201   155.6    20.1    19.8
1999 10 24    02 26.78   +28 22.0    0.244    1.228   161.3    15.0    19.9
1999 10 29    02 25.70   +26 18.1    0.270    1.258   166.5    10.6    20.0
1999 11 03    02 24.63   +24 27.1    0.299    1.288   170.3     7.5    20.2
1999 11 08    02 23.84   +22 49.5    0.331    1.319   171.0     6.8    20.4
1999 11 13    02 23.54   +21 25.4    0.367    1.351   168.3     8.6    20.8
1999 11 18    02 23.86   +20 14.7    0.406    1.384   164.1    11.3    21.1
1999 11 23    02 24.84   +19 16.9    0.449    1.417   159.4    14.2    21.5
1999 11 28    02 26.49   +18 30.7    0.496    1.451   154.7    16.9    21.9

Gareth V. Williams           (C) Copyright 1999 MPC           M.P.E.C. 1999-P35

Read MPEC 1999-P34 Read MPEC 1999-P36


Our Web policy. Index to the CBAT/MPC/ICQ pages.


Valid HTML 4.01!